Location: Владивосток
(43.1151°N, 131.8856°E)
Time: 19:22:17
(UTC+10:00)

FENGYUN 1C DEB - Pass Details

Date: 25 May 2025
Orbit: 716 x 738 km, 98.8° (Epoch: 20 June)

Event Time Altitude Azimuth Distance (km) Brightness Sun altitude
Exits shadow 01:56:30 54° 116° (ESE) 887 ? -25.1°
Maximum altitude 01:57:17 63° 73° (ENE) 818 ? -25.0°
Drops below altitude 10° 02:02:08 10° 352° (N) 2,236 ? -24.8°
Sets 02:04:26 0° 350° (N) 3,158 ? -24.7°
